Wetterdaten: Sonntag, 07.12.2014
Datum Zeit Temp. A. Mod.Schuppen Waschkche Feuchte A. Luftdruck Regen Wind Richtung Richtung Sonnenschein Helligkeit Solar
07.12.2014 00:04 4,9 C 4,0 C 6,9 C 91 % 1024,1 hPa 0,0 l/m 4,7 km/h (1 Bft) S 175 0 min 0 lux 0 W/m
07.12.2014 00:10 4,9 C 4,0 C 6,9 C 91 % 1024,1 hPa 0,0 l/m 4,7 km/h (1 Bft) S 175 0 min 0 lux 0 W/m
07.12.2014 00:14 4,9 C 4,0 C 6,9 C 91 % 1024,1 hPa 0,0 l/m 4,7 km/h (1 Bft) S 175 0 min 0 lux 0 W/m
07.12.2014 00:19 4,9 C 4,0 C 6,9 C 90 % 1024,1 hPa 0,0 l/m 4,7 km/h (1 Bft) S 175 0 min 0 lux 0 W/m
07.12.2014 00:24 4,8 C 4,0 C 6,9 C 90 % 1024,1 hPa 0,0 l/m 0,3 km/h (0 Bft) S 180 0 min 0 lux 0 W/m
07.12.2014 00:29 4,8 C 4,0 C 6,9 C 90 % 1024,1 hPa 0,0 l/m 0,3 km/h (0 Bft) S 180 0 min 0 lux 0 W/m
07.12.2014 00:34 4,7 C 4,0 C 6,9 C 90 % 1024,1 hPa 0,0 l/m 0,3 km/h (0 Bft) S 180 0 min 0 lux 0 W/m
07.12.2014 00:39 4,7 C 3,9 C 6,9 C 90 % 1024,1 hPa 0,0 l/m 0,0 km/h (0 Bft) S 180 0 min 0 lux 0 W/m
07.12.2014 00:45 4,7 C 3,9 C 6,9 C 90 % 1024,1 hPa 0,0 l/m 0,0 km/h (0 Bft) S 180 0 min 0 lux 0 W/m
07.12.2014 00:50 4,8 C 3,9 C 6,9 C 90 % 1024,1 hPa 0,0 l/m 0,0 km/h (0 Bft) S 180 0 min 0 lux 0 W/m
07.12.2014 00:54 4,9 C 4,0 C 6,9 C 90 % 1024,1 hPa 0,0 l/m 6,8 km/h (2 Bft) S-SW22.5 195 0 min 0 lux 0 W/m
07.12.2014 00:59 4,9 C 4,1 C 6,9 C 90 % 1024,1 hPa 0,0 l/m 6,8 km/h (2 Bft) S-SW22.5 195 0 min 0 lux 0 W/m
07.12.2014 01:04 4,8 C 4,2 C 6,9 C 90 % 1024,1 hPa 0,0 l/m 5,4 km/h (2 Bft) S-SW 200 0 min 0 lux 0 W/m
07.12.2014 01:09 4,8 C 4,1 C 6,9 C 90 % 1024,1 hPa 0,0 l/m 0,0 km/h (0 Bft) S-SW 200 0 min 0 lux 0 W/m
07.12.2014 01:15 4,7 C 4,1 C 7,0 C 90 % 1024,1 hPa 0,0 l/m 0,0 km/h (0 Bft) S-SW 200 0 min 0 lux 0 W/m
07.12.2014 01:20 4,7 C 4,0 C 7,0 C 90 % 1024,1 hPa 0,0 l/m 0,0 km/h (0 Bft) S-SW 200 0 min 0 lux 0 W/m
07.12.2014 01:24 4,7 C 4,0 C 7,0 C 90 % 1024,1 hPa 0,0 l/m 0,0 km/h (0 Bft) S-SW 200 0 min 0 lux 0 W/m
07.12.2014 01:29 4,7 C 4,0 C 6,9 C 90 % 1024,1 hPa 0,0 l/m 0,0 km/h (0 Bft) S-SW 200 0 min 0 lux 0 W/m
07.12.2014 01:34 4,8 C 3,9 C 7,0 C 90 % 1024,1 hPa 0,0 l/m 0,0 km/h (0 Bft) S-SW 200 0 min 0 lux 0 W/m
07.12.2014 01:39 4,8 C 3,9 C 7,0 C 90 % 1024,1 hPa 0,0 l/m 0,0 km/h (0 Bft) S-SW 200 0 min 0 lux 0 W/m
07.12.2014 01:44 4,8 C 3,9 C 6,9 C 90 % 1024,1 hPa 0,0 l/m 0,0 km/h (0 Bft) S-SW 200 0 min 0 lux 0 W/m
07.12.2014 01:50 4,8 C 3,9 C 7,0 C 90 % 1024,1 hPa 0,0 l/m 0,0 km/h (0 Bft) S-SW 200 0 min 0 lux 0 W/m
07.12.2014 01:55 4,8 C 3,8 C 7,0 C 90 % 1024,1 hPa 0,0 l/m 0,0 km/h (0 Bft) S-SW 200 0 min 0 lux 0 W/m
07.12.2014 01:59 4,8 C 3,7 C 7,0 C 90 % 1024,1 hPa 0,0 l/m 6,3 km/h (2 Bft) S 180 0 min 0 lux 0 W/m
07.12.2014 02:04 4,8 C 3,8 C 6,9 C 90 % 1023,1 hPa 0,0 l/m 5,8 km/h (2 Bft) S 170 0 min 0 lux 0 W/m
07.12.2014 02:09 4,8 C 3,7 C 6,9 C 90 % 1023,1 hPa 0,0 l/m 0,7 km/h (0 Bft) S 175 0 min 0 lux 0 W/m
07.12.2014 02:14 4,7 C 3,7 C 6,9 C 90 % 1023,1 hPa 0,0 l/m 4,4 km/h (1 Bft) S 170 0 min 0 lux 0 W/m
07.12.2014 02:20 4,7 C 3,7 C 7,0 C 90 % 1023,1 hPa 0,0 l/m 4,4 km/h (1 Bft) S 170 0 min 0 lux 0 W/m
07.12.2014 02:25 4,7 C 3,7 C 7,0 C 90 % 1023,1 hPa 0,0 l/m 3,4 km/h (1 Bft) S 170 0 min 0 lux 0 W/m
07.12.2014 02:29 4,7 C 3,8 C 7,0 C 90 % 1023,1 hPa 0,0 l/m 0,4 km/h (0 Bft) S 170 0 min 0 lux 0 W/m
07.12.2014 02:34 4,7 C 3,9 C 7,0 C 90 % 1023,1 hPa 0,0 l/m 0,4 km/h (0 Bft) S 170 0 min 0 lux 0 W/m
07.12.2014 02:39 4,7 C 3,9 C 7,0 C 90 % 1023,1 hPa 0,0 l/m 0,4 km/h (0 Bft) S 170 0 min 0 lux 0 W/m
07.12.2014 02:44 4,8 C 3,9 C 7,0 C 90 % 1023,1 hPa 0,0 l/m 4,4 km/h (1 Bft) S 170 0 min 0 lux 0 W/m
07.12.2014 02:49 4,7 C 3,9 C 7,0 C 90 % 1023,1 hPa 0,0 l/m 0,1 km/h (0 Bft) S 170 0 min 0 lux 0 W/m
07.12.2014 02:54 4,7 C 3,8 C 7,0 C 90 % 1023,1 hPa 0,0 l/m 5,0 km/h (1 Bft) SO 145 0 min 0 lux 0 W/m
07.12.2014 03:00 4,7 C 3,8 C 7,0 C 90 % 1023,1 hPa 0,0 l/m 5,0 km/h (1 Bft) SO 145 0 min 0 lux 0 W/m
07.12.2014 03:04 4,7 C 3,8 C 7,0 C 90 % 1023,1 hPa 0,0 l/m 0,0 km/h (0 Bft) S-SO 150 0 min 0 lux 0 W/m
07.12.2014 03:09 4,7 C 3,8 C 7,0 C 90 % 1023,1 hPa 0,0 l/m 4,3 km/h (1 Bft) SO 145 0 min 0 lux 0 W/m
07.12.2014 03:14 4,7 C 3,9 C 7,0 C 90 % 1023,1 hPa 0,0 l/m 4,3 km/h (1 Bft) SO 145 0 min 0 lux 0 W/m
07.12.2014 03:19 4,7 C 3,9 C 7,0 C 90 % 1023,1 hPa 0,0 l/m 4,3 km/h (1 Bft) SO 145 0 min 0 lux 0 W/m
07.12.2014 03:24 4,7 C 3,8 C 7,0 C 90 % 1023,1 hPa 0,0 l/m 4,3 km/h (1 Bft) SO 145 0 min 0 lux 0 W/m
07.12.2014 03:30 4,7 C 3,8 C 7,0 C 90 % 1023,1 hPa 0,0 l/m 6,5 km/h (2 Bft) S-SO 150 0 min 0 lux 0 W/m
07.12.2014 03:35 4,7 C 3,7 C 7,0 C 90 % 1023,1 hPa 0,0 l/m 6,5 km/h (2 Bft) S-SO 150 0 min 0 lux 0 W/m
07.12.2014 03:39 4,7 C 3,3 C 7,0 C 90 % 1023,1 hPa 0,0 l/m 6,5 km/h (2 Bft) S-SO 150 0 min 0 lux 0 W/m
07.12.2014 03:44 4,7 C 3,3 C 7,0 C 89 % 1023,1 hPa 0,0 l/m 6,5 km/h (2 Bft) S-SO 150 0 min 0 lux 0 W/m
07.12.2014 03:49 4,6 C 3,1 C 7,0 C 89 % 1023,1 hPa 0,0 l/m 6,5 km/h (2 Bft) S-SO 150 0 min 0 lux 0 W/m
07.12.2014 03:54 4,6 C 3,3 C 7,0 C 90 % 1023,1 hPa 0,0 l/m 6,5 km/h (2 Bft) S-SO 150 0 min 0 lux 0 W/m
07.12.2014 03:59 4,6 C 3,5 C 7,0 C 90 % 1023,1 hPa 0,0 l/m 5,2 km/h (1 Bft) S-SO 160 0 min 0 lux 0 W/m
07.12.2014 04:05 4,7 C 3,7 C 7,0 C 90 % 1023,1 hPa 0,0 l/m 5,2 km/h (1 Bft) S-SO 160 0 min 0 lux 0 W/m
07.12.2014 04:09 4,7 C 3,8 C 7,0 C 90 % 1023,1 hPa 0,0 l/m 5,2 km/h (1 Bft) S-SO 160 0 min 0 lux 0 W/m
07.12.2014 04:14 4,7 C 3,7 C 7,0 C 90 % 1023,1 hPa 0,0 l/m 5,8 km/h (2 Bft) S22.5 185 0 min 0 lux 0 W/m
07.12.2014 04:19 4,7 C 3,6 C 7,0 C 90 % 1023,1 hPa 0,0 l/m 5,8 km/h (2 Bft) S22.5 185 0 min 0 lux 0 W/m
07.12.2014 04:24 4,6 C 3,0 C 7,0 C 90 % 1022,1 hPa 0,0 l/m 5,8 km/h (2 Bft) S22.5 185 0 min 0 lux 0 W/m
07.12.2014 04:29 4,6 C 2,6 C 7,0 C 90 % 1022,1 hPa 0,0 l/m 5,8 km/h (2 Bft) S22.5 185 0 min 0 lux 0 W/m
07.12.2014 04:35 4,5 C 2,6 C 7,0 C 90 % 1022,1 hPa 0,0 l/m 8,6 km/h (2 Bft) S 185 0 min 0 lux 0 W/m
07.12.2014 04:40 4,5 C 2,9 C 7,0 C 90 % 1022,1 hPa 0,0 l/m 5,6 km/h (2 Bft) S-SW 195 0 min 0 lux 0 W/m
07.12.2014 04:44 4,4 C 3,1 C 7,0 C 90 % 1022,1 hPa 0,0 l/m 5,6 km/h (2 Bft) S-SW 195 0 min 0 lux 0 W/m
07.12.2014 04:49 4,4 C 3,1 C 7,0 C 90 % 1022,1 hPa 0,0 l/m 7,4 km/h (2 Bft) S 185 0 min 0 lux 0 W/m
07.12.2014 04:54 4,5 C 3,4 C 7,0 C 90 % 1022,1 hPa 0,0 l/m 8,9 km/h (2 Bft) S22.5 175 0 min 0 lux 0 W/m
07.12.2014 04:59 4,5 C 3,5 C 7,0 C 90 % 1022,1 hPa 0,0 l/m 7,4 km/h (2 Bft) S22.5 185 0 min 0 lux 0 W/m
07.12.2014 05:05 4,5 C 3,6 C 7,0 C 90 % 1022,1 hPa 0,0 l/m 10,0 km/h (2 Bft) S-SW22.5 210 0 min 0 lux 0 W/m
07.12.2014 05:10 4,5 C 3,7 C 7,0 C 90 % 1022,1 hPa 0,0 l/m 10,0 km/h (2 Bft) S-SW22.5 210 0 min 0 lux 0 W/m
07.12.2014 05:14 4,5 C 3,9 C 7,0 C 90 % 1022,1 hPa 0,0 l/m 15,9 km/h (3 Bft) SW45 215 0 min 0 lux 0 W/m
07.12.2014 05:19 4,5 C 4,0 C 7,0 C 90 % 1022,1 hPa 0,0 l/m 15,9 km/h (3 Bft) SW45 215 0 min 0 lux 0 W/m
07.12.2014 05:24 4,5 C 4,0 C 7,0 C 90 % 1022,1 hPa 0,0 l/m 15,9 km/h (3 Bft) SW45 215 0 min 0 lux 0 W/m
07.12.2014 05:29 4,4 C 3,9 C 7,0 C 90 % 1022,1 hPa 0,0 l/m 15,9 km/h (3 Bft) SW45 215 0 min 0 lux 0 W/m
07.12.2014 05:34 4,4 C 3,9 C 7,0 C 90 % 1022,1 hPa 0,0 l/m 13,4 km/h (3 Bft) SW45 225 0 min 0 lux 0 W/m
07.12.2014 05:40 4,4 C 3,8 C 7,0 C 90 % 1022,1 hPa 0,0 l/m 11,1 km/h (2 Bft) SW45 215 0 min 0 lux 0 W/m
07.12.2014 05:45 4,3 C 3,7 C 7,0 C 90 % 1022,1 hPa 0,0 l/m 16,0 km/h (3 Bft) SW22.5 225 0 min 0 lux 0 W/m
07.12.2014 05:50 4,2 C 3,6 C 7,0 C 90 % 1022,1 hPa 0,0 l/m 13,1 km/h (3 Bft) SW22.5 230 0 min 0 lux 0 W/m
07.12.2014 05:54 4,2 C 3,6 C 7,0 C 90 % 1022,1 hPa 0,0 l/m 12,6 km/h (3 Bft) SW22.5 220 0 min 0 lux 0 W/m
07.12.2014 05:59 4,1 C 3,4 C 6,9 C 91 % 1022,2 hPa 0,0 l/m 13,1 km/h (3 Bft) SW45 225 0 min 0 lux 0 W/m
07.12.2014 06:04 4,0 C 3,3 C 6,9 C 91 % 1022,2 hPa 0,0 l/m 13,8 km/h (3 Bft) SW22.5 220 0 min 0 lux 0 W/m
07.12.2014 06:10 4,0 C 3,1 C 6,9 C 91 % 1022,2 hPa 0,0 l/m 9,7 km/h (2 Bft) SW45 225 0 min 0 lux 0 W/m
07.12.2014 06:15 3,9 C 3,0 C 6,9 C 91 % 1022,2 hPa 0,0 l/m 14,6 km/h (3 Bft) SW22.5 220 0 min 0 lux 0 W/m
07.12.2014 06:19 3,8 C 2,6 C 6,9 C 91 % 1022,2 hPa 0,0 l/m 14,3 km/h (3 Bft) SW22.5 215 0 min 0 lux 0 W/m
07.12.2014 06:24 3,7 C 2,3 C 6,9 C 91 % 1022,2 hPa 0,0 l/m 13,8 km/h (3 Bft) SW22.5 225 0 min 0 lux 0 W/m
07.12.2014 06:29 3,5 C 2,1 C 6,9 C 91 % 1022,2 hPa 0,0 l/m 14,3 km/h (3 Bft) SW22.5 225 0 min 0 lux 0 W/m
07.12.2014 06:34 3,5 C 2,0 C 6,9 C 91 % 1022,2 hPa 0,0 l/m 10,9 km/h (2 Bft) SW22.5 225 0 min 0 lux 0 W/m
07.12.2014 06:39 3,5 C 2,0 C 6,9 C 91 % 1022,2 hPa 0,0 l/m 16,3 km/h (3 Bft) SW45 225 0 min 0 lux 0 W/m
07.12.2014 06:44 3,4 C 1,7 C 6,9 C 91 % 1022,2 hPa 0,0 l/m 16,3 km/h (3 Bft) SW45 225 0 min 0 lux 0 W/m
07.12.2014 06:50 3,4 C 1,9 C 6,9 C 91 % 1022,2 hPa 0,0 l/m 17,1 km/h (3 Bft) SW22.5 230 0 min 0 lux 0 W/m
07.12.2014 06:55 3,4 C 2,2 C 6,9 C 91 % 1022,2 hPa 0,0 l/m 17,1 km/h (3 Bft) SW22.5 230 0 min 0 lux 0 W/m
07.12.2014 06:59 3,4 C 2,4 C 6,9 C 91 % 1022,2 hPa 0,0 l/m 13,1 km/h (3 Bft) SW22.5 225 0 min 0 lux 0 W/m
07.12.2014 07:04 3,4 C 2,6 C 6,9 C 91 % 1022,2 hPa 0,0 l/m 20,8 km/h (4 Bft) SW67.5 225 0 min 0 lux 0 W/m
07.12.2014 07:09 3,4 C 2,7 C 6,8 C 91 % 1022,2 hPa 0,0 l/m 20,8 km/h (4 Bft) SW67.5 225 0 min 0 lux 0 W/m
07.12.2014 07:14 3,4 C 2,8 C 6,9 C 91 % 1022,2 hPa 0,0 l/m 15,0 km/h (3 Bft) SW45 220 0 min 0 lux 0 W/m
07.12.2014 07:20 3,3 C 2,7 C 6,9 C 91 % 1022,2 hPa 0,0 l/m 20,2 km/h (4 Bft) SW45 220 0 min 0 lux 0 W/m
07.12.2014 07:25 3,3 C 2,8 C 6,9 C 91 % 1022,2 hPa 0,0 l/m 20,2 km/h (4 Bft) SW45 220 0 min 0 lux 0 W/m
07.12.2014 07:29 3,3 C 2,9 C 6,8 C 91 % 1022,2 hPa 0,0 l/m 26,1 km/h (4 Bft) SW45 215 0 min 0 lux 0 W/m
07.12.2014 07:34 3,3 C 2,9 C 6,8 C 92 % 1022,2 hPa 0,0 l/m 26,1 km/h (4 Bft) SW45 215 0 min 0 lux 0 W/m
07.12.2014 07:39 3,2 C 2,8 C 6,8 C 92 % 1022,2 hPa 0,0 l/m 26,1 km/h (4 Bft) SW45 215 0 min 0 lux 0 W/m
07.12.2014 07:44 3,2 C 2,8 C 6,8 C 92 % 1022,2 hPa 0,0 l/m 19,9 km/h (4 Bft) SW22.5 225 0 min 0 lux 0 W/m
07.12.2014 07:49 3,2 C 2,8 C 6,7 C 92 % 1022,2 hPa 0,0 l/m 15,5 km/h (3 Bft) SW45 225 0 min 0 lux 0 W/m
07.12.2014 07:55 3,2 C 2,8 C 6,7 C 92 % 1022,2 hPa 0,0 l/m 15,5 km/h (3 Bft) SW45 225 0 min 0 lux 0 W/m
07.12.2014 08:00 3,2 C 2,8 C 6,7 C 92 % 1022,2 hPa 0,0 l/m 21,3 km/h (4 Bft) SW45 230 0 min 0 lux 0 W/m
07.12.2014 08:04 3,2 C 2,8 C 6,7 C 92 % 1022,2 hPa 0,0 l/m 20,8 km/h (4 Bft) SW67.5 225 0 min 32 lux 0 W/m
07.12.2014 08:09 3,2 C 2,8 C 6,7 C 92 % 1022,2 hPa 0,0 l/m 20,8 km/h (4 Bft) SW67.5 225 0 min 51 lux 0 W/m
07.12.2014 08:14 3,3 C 2,9 C 6,7 C 92 % 1022,2 hPa 0,0 l/m 12,6 km/h (3 Bft) SW45 220 0 min 51 lux 0 W/m
07.12.2014 08:19 3,3 C 3,0 C 6,7 C 92 % 1022,2 hPa 0,0 l/m 14,6 km/h (3 Bft) SW22.5 230 0 min 145 lux 0 W/m
07.12.2014 08:25 3,4 C 3,0 C 6,7 C 92 % 1022,2 hPa 0,0 l/m 15,1 km/h (3 Bft) SW45 215 0 min 145 lux 0 W/m
07.12.2014 08:30 3,4 C 3,0 C 6,7 C 92 % 1022,2 hPa 0,0 l/m 15,1 km/h (3 Bft) SW45 215 0 min 299 lux 0 W/m
07.12.2014 08:34 3,4 C 3,0 C 6,7 C 92 % 1022,2 hPa 0,0 l/m 17,5 km/h (3 Bft) SW45 225 0 min 371 lux 3 W/m
07.12.2014 08:39 3,4 C 3,0 C 6,7 C 92 % 1022,2 hPa 0,0 l/m 22,8 km/h (4 Bft) SW45 220 0 min 601 lux 4 W/m
07.12.2014 08:44 3,5 C 3,0 C 6,7 C 92 % 1022,2 hPa 0,0 l/m 22,8 km/h (4 Bft) SW45 220 0 min 749 lux 5 W/m
07.12.2014 08:49 3,5 C 3,0 C 6,7 C 92 % 1022,2 hPa 0,0 l/m 22,8 km/h (4 Bft) SW45 220 0 min 749 lux 5 W/m
07.12.2014 08:54 3,5 C 3,0 C 6,7 C 92 % 1021,2 hPa 0,0 l/m 22,8 km/h (4 Bft) SW45 220 0 min 1,02 klux 7 W/m
07.12.2014 09:00 3,6 C 3,0 C 6,7 C 92 % 1021,2 hPa 0,0 l/m 22,8 km/h (4 Bft) SW45 220 0 min 1,39 klux 10 W/m
07.12.2014 09:04 3,6 C 3,1 C 6,6 C 92 % 1021,2 hPa 0,0 l/m 22,8 km/h (4 Bft) SW45 220 0 min 2,96 klux 20 W/m
07.12.2014 09:09 3,6 C 3,1 C 6,6 C 91 % 1021,2 hPa 0,0 l/m 17,6 km/h (3 Bft) SW22.5 215 0 min 2,96 klux 20 W/m
07.12.2014 09:14 3,6 C 3,0 C 6,6 C 91 % 1022,2 hPa 0,0 l/m 18,3 km/h (3 Bft) SW22.5 225 0 min 5,22 klux 36 W/m
07.12.2014 09:19 3,6 C 3,3 C 6,6 C 91 % 1021,2 hPa 0,0 l/m 18,1 km/h (3 Bft) SW22.5 215 0 min 5,22 klux 36 W/m
07.12.2014 09:24 3,6 C 3,8 C 6,6 C 91 % 1021,2 hPa 0,0 l/m 22,1 km/h (4 Bft) SW45 215 5 min 8,26 klux 56 W/m
07.12.2014 09:30 3,5 C 3,8 C 6,7 C 91 % 1021,2 hPa 0,0 l/m 19,8 km/h (3 Bft) S-SW45 210 6 min 9,4 klux 64 W/m
07.12.2014 09:35 3,5 C 4,0 C 6,6 C 91 % 1021,2 hPa 0,0 l/m 18,3 km/h (3 Bft) SW22.5 220 5 min 10,6 klux 73 W/m
07.12.2014 09:39 3,6 C 4,2 C 6,6 C 91 % 1021,2 hPa 0,0 l/m 23,8 km/h (4 Bft) SW67.5 215 4 min 11,1 klux 76 W/m
07.12.2014 09:44 3,6 C 4,6 C 6,7 C 91 % 1021,2 hPa 0,0 l/m 23,8 km/h (4 Bft) SW67.5 215 5 min 12,9 klux 88 W/m
07.12.2014 09:49 3,7 C 4,9 C 6,6 C 91 % 1021,2 hPa 0,0 l/m 23,8 km/h (4 Bft) SW67.5 215 5 min 14,4 klux 98 W/m
07.12.2014 09:54 3,8 C 5,4 C 6,6 C 90 % 1021,2 hPa 0,0 l/m 23,8 km/h (4 Bft) SW67.5 215 5 min 15,4 klux 105 W/m
07.12.2014 09:59 3,9 C 6,0 C 6,7 C 90 % 1021,1 hPa 0,0 l/m 21,8 km/h (4 Bft) S-SW22.5 205 5 min 17,0 klux 116 W/m
07.12.2014 10:04 4,0 C 6,3 C 6,7 C 90 % 1021,1 hPa 0,0 l/m 21,8 km/h (4 Bft) S-SW22.5 205 5 min 18,2 klux 124 W/m
07.12.2014 10:09 4,3 C 6,8 C 6,6 C 89 % 1021,1 hPa 0,0 l/m 22,6 km/h (4 Bft) S-SW22.5 195 5 min 20,3 klux 139 W/m
07.12.2014 10:14 4,3 C 8,2 C 6,6 C 89 % 1021,1 hPa 0,0 l/m 21,1 km/h (4 Bft) S-SW45 195 5 min 22,5 klux 154 W/m
07.12.2014 10:19 4,7 C 8,9 C 6,7 C 89 % 1021,1 hPa 0,0 l/m 13,5 km/h (3 Bft) S22.5 185 5 min 22,4 klux 153 W/m
07.12.2014 10:24 4,8 C 9,9 C 6,7 C 88 % 1021,1 hPa 0,0 l/m 21,3 km/h (4 Bft) S-SW45 195 5 min 22,0 klux 150 W/m
07.12.2014 10:30 4,9 C 10,9 C 6,7 C 87 % 1021,1 hPa 0,0 l/m 20,0 km/h (4 Bft) S45 190 6 min 26,0 klux 178 W/m
07.12.2014 10:35 5,3 C 11,5 C 6,7 C 86 % 1021,1 hPa 0,0 l/m 23,0 km/h (4 Bft) S-SW45 200 5 min 27,8 klux 190 W/m
07.12.2014 10:39 5,5 C 12,1 C 6,7 C 85 % 1021,1 hPa 0,0 l/m 26,5 km/h (4 Bft) S-SW45 200 4 min 29,4 klux 201 W/m
07.12.2014 10:44 5,6 C 12,6 C 6,7 C 83 % 1021,1 hPa 0,0 l/m 25,0 km/h (4 Bft) S-SW22.5 205 5 min 28,0 klux 192 W/m
07.12.2014 10:49 5,7 C 13,4 C 6,7 C 83 % 1020,1 hPa 0,0 l/m 22,9 km/h (4 Bft) S-SW22.5 200 5 min 29,7 klux 203 W/m
07.12.2014 10:54 5,8 C 13,4 C 6,7 C 81 % 1020,1 hPa 0,0 l/m 26,2 km/h (4 Bft) S-SW45 200 5 min 29,5 klux 202 W/m
07.12.2014 10:59 5,7 C 11,7 C 6,7 C 81 % 1020,1 hPa 0,0 l/m 24,3 km/h (4 Bft) S-SW45 200 0 min 13,3 klux 91 W/m
07.12.2014 11:04 5,6 C 9,8 C 6,7 C 80 % 1020,1 hPa 0,0 l/m 28,0 km/h (5 Bft) S-SW22.5 200 0 min 13,6 klux 93 W/m
07.12.2014 11:09 5,6 C 9,2 C 6,7 C 81 % 1020,1 hPa 0,0 l/m 24,0 km/h (4 Bft) S-SW45 200 0 min 12,2 klux 83 W/m
07.12.2014 11:14 5,5 C 8,3 C 6,7 C 80 % 1020,1 hPa 0,0 l/m 28,4 km/h (5 Bft) S-SW22.5 205 0 min 13,7 klux 94 W/m
07.12.2014 11:19 5,5 C 7,9 C 6,7 C 81 % 1020,1 hPa 0,0 l/m 28,8 km/h (5 Bft) S-SW22.5 205 0 min 13,3 klux 91 W/m
07.12.2014 11:24 5,6 C 8,6 C 6,7 C 80 % 1020,1 hPa 0,0 l/m 22,4 km/h (4 Bft) S-SW22.5 205 5 min 22,2 klux 152 W/m
07.12.2014 11:30 5,8 C 9,3 C 6,7 C 79 % 1020,1 hPa 0,0 l/m 26,8 km/h (4 Bft) S-SW45 195 6 min 23,8 klux 163 W/m
07.12.2014 11:35 5,8 C 10,1 C 6,7 C 78 % 1020,1 hPa 0,0 l/m 26,6 km/h (4 Bft) S-SW67.5 200 0 min 19,4 klux 133 W/m
07.12.2014 11:39 5,9 C 9,5 C 6,7 C 78 % 1020,1 hPa 0,0 l/m 22,7 km/h (4 Bft) S-SW22.5 195 0 min 14,4 klux 98 W/m
07.12.2014 11:44 5,9 C 9,3 C 6,7 C 78 % 1019,1 hPa 0,0 l/m 22,8 km/h (4 Bft) S22.5 185 5 min 33,7 klux 231 W/m
07.12.2014 11:49 6,2 C 11,5 C 6,7 C 77 % 1019,1 hPa 0,0 l/m 28,3 km/h (5 Bft) S-SW45 195 5 min 35,3 klux 241 W/m
07.12.2014 11:54 6,4 C 14,2 C 6,7 C 77 % 1019,1 hPa 0,0 l/m 22,1 km/h (4 Bft) S-SW22.5 195 5 min 34,6 klux 237 W/m
07.12.2014 11:59 6,6 C 15,1 C 6,7 C 77 % 1019,1 hPa 0,0 l/m 25,7 km/h (4 Bft) S-SW45 195 5 min 30,6 klux 209 W/m
07.12.2014 12:04 6,7 C 14,0 C 6,7 C 75 % 1019,1 hPa 0,0 l/m 20,3 km/h (4 Bft) S-SW45 200 0 min 12,0 klux 82 W/m
07.12.2014 12:09 6,7 C 11,6 C 6,7 C 75 % 1019,1 hPa 0,0 l/m 25,6 km/h (4 Bft) S-SW22.5 205 0 min 10,3 klux 70 W/m
07.12.2014 12:14 6,4 C 9,5 C 6,8 C 75 % 1019,1 hPa 0,0 l/m 29,1 km/h (5 Bft) S-SW45 210 0 min 5,53 klux 38 W/m
07.12.2014 12:19 6,2 C 8,8 C 6,8 C 75 % 1019,1 hPa 0,0 l/m 26,7 km/h (4 Bft) S-SW22.5 205 0 min 5,01 klux 34 W/m
07.12.2014 12:25 6,2 C 8,0 C 6,8 C 75 % 1019,1 hPa 0,0 l/m 24,3 km/h (4 Bft) S-SW45 200 0 min 4,83 klux 33 W/m
07.12.2014 12:30 6,2 C 7,6 C 6,8 C 75 % 1019,1 hPa 0,0 l/m 26,6 km/h (4 Bft) S-SW45 210 0 min 4,60 klux 31 W/m
07.12.2014 12:34 6,2 C 7,4 C 6,8 C 75 % 1019,1 hPa 0,0 l/m 21,7 km/h (4 Bft) S-SW22.5 200 0 min 5,33 klux 36 W/m
07.12.2014 12:39 6,2 C 7,3 C 6,8 C 76 % 1019,1 hPa 0,0 l/m 27,0 km/h (5 Bft) SW45 215 0 min 6,44 klux 44 W/m
07.12.2014 12:44 6,2 C 7,3 C 6,8 C 76 % 1019,1 hPa 0,0 l/m 27,5 km/h (5 Bft) S-SW45 205 0 min 6,23 klux 43 W/m
07.12.2014 12:49 6,2 C 7,5 C 6,8 C 75 % 1019,1 hPa 0,0 l/m 28,3 km/h (5 Bft) S-SW45 210 0 min 6,23 klux 43 W/m
07.12.2014 12:54 6,2 C 7,3 C 6,8 C 73 % 1019,1 hPa 0,0 l/m 30,0 km/h (5 Bft) S-SW45 200 0 min 4,82 klux 33 W/m
07.12.2014 13:00 6,2 C 7,3 C 6,8 C 73 % 1019,1 hPa 0,0 l/m 30,0 km/h (5 Bft) S-SW45 200 0 min 4,82 klux 33 W/m
07.12.2014 13:04 6,3 C 7,2 C 6,8 C 74 % 1019,1 hPa 0,0 l/m 22,2 km/h (4 Bft) S-SW45 210 0 min 4,50 klux 31 W/m
07.12.2014 13:09 6,3 C 7,2 C 6,8 C 72 % 1018,1 hPa 0,0 l/m 22,0 km/h (4 Bft) S-SW45 205 0 min 4,50 klux 31 W/m
07.12.2014 13:14 6,4 C 7,0 C 6,8 C 72 % 1018,1 hPa 0,0 l/m 28,8 km/h (5 Bft) S-SW22.5 200 0 min 3,71 klux 25 W/m
07.12.2014 13:19 6,3 C 6,8 C 6,8 C 72 % 1018,1 hPa 0,0 l/m 27,3 km/h (5 Bft) SW67.5 215 0 min 3,87 klux 26 W/m
07.12.2014 13:25 6,3 C 6,9 C 6,8 C 72 % 1018,1 hPa 0,0 l/m 21,6 km/h (4 Bft) SW22.5 215 0 min 3,53 klux 24 W/m
07.12.2014 13:30 6,3 C 6,8 C 6,8 C 72 % 1018,1 hPa 0,0 l/m 21,3 km/h (4 Bft) SW45 215 0 min 3,54 klux 24 W/m
07.12.2014 13:34 6,4 C 6,8 C 6,8 C 71 % 1018,1 hPa 0,0 l/m 29,0 km/h (5 Bft) SW22.5 220 0 min 3,51 klux 24 W/m
07.12.2014 13:39 6,4 C 6,8 C 6,8 C 70 % 1018,1 hPa 0,0 l/m 30,5 km/h (5 Bft) SW45 215 0 min 3,15 klux 22 W/m
07.12.2014 13:44 6,4 C 6,6 C 6,8 C 70 % 1018,1 hPa 0,0 l/m 35,8 km/h (5 Bft) SW45 215 0 min 2,87 klux 20 W/m
07.12.2014 13:49 6,3 C 6,5 C 6,8 C 69 % 1018,1 hPa 0,0 l/m 30,8 km/h (5 Bft) SW45 225 0 min 3,04 klux 21 W/m
07.12.2014 13:54 6,3 C 6,7 C 6,8 C 70 % 1018,1 hPa 0,0 l/m 25,0 km/h (4 Bft) SW45 215 0 min 3,55 klux 24 W/m
07.12.2014 14:00 6,3 C 6,7 C 6,8 C 69 % 1018,1 hPa 0,0 l/m 35,1 km/h (5 Bft) SW45 220 0 min 2,71 klux 19 W/m
07.12.2014 14:04 6,3 C 6,6 C 6,8 C 69 % 1018,1 hPa 0,0 l/m 26,4 km/h (4 Bft) SW22.5 215 0 min 2,71 klux 19 W/m
07.12.2014 14:09 6,2 C 6,5 C 6,8 C 69 % 1018,1 hPa 0,0 l/m 32,2 km/h (5 Bft) SW67.5 220 0 min 2,34 klux 16 W/m
07.12.2014 14:14 6,2 C 6,4 C 6,8 C 68 % 1018,1 hPa 0,0 l/m 33,3 km/h (5 Bft) SW45 225 0 min 2,19 klux 15 W/m
07.12.2014 14:19 6,2 C 6,3 C 6,8 C 68 % 1018,1 hPa 0,0 l/m 34,9 km/h (5 Bft) SW45 225 0 min 2,46 klux 17 W/m
07.12.2014 14:25 6,3 C 6,3 C 6,8 C 68 % 1018,1 hPa 0,0 l/m 34,1 km/h (5 Bft) SW45 220 0 min 2,35 klux 16 W/m
07.12.2014 14:30 6,3 C 6,3 C 6,8 C 68 % 1018,1 hPa 0,0 l/m 31,6 km/h (5 Bft) SW45 220 0 min 2,37 klux 16 W/m
07.12.2014 14:34 6,2 C 6,4 C 6,8 C 68 % 1018,1 hPa 0,0 l/m 29,8 km/h (5 Bft) SW45 215 0 min 2,00 klux 14 W/m
07.12.2014 14:39 6,2 C 6,2 C 6,8 C 68 % 1017,1 hPa 0,0 l/m 30,0 km/h (5 Bft) S-SW45 210 0 min 1,36 klux 9 W/m
07.12.2014 14:44 6,3 C 6,0 C 6,8 C 68 % 1017,1 hPa 0,0 l/m 33,7 km/h (5 Bft) SW67.5 215 0 min 1,40 klux 10 W/m
07.12.2014 14:49 6,2 C 5,7 C 6,8 C 68 % 1017,1 hPa 0,0 l/m 31,1 km/h (5 Bft) S-SW45 200 0 min 1,42 klux 10 W/m
07.12.2014 14:54 6,2 C 5,4 C 6,8 C 70 % 1017,1 hPa 0,0 l/m 29,8 km/h (5 Bft) S-SW45 200 0 min 1,68 klux 11 W/m
07.12.2014 15:00 6,1 C 5,0 C 6,8 C 71 % 1017,1 hPa 0,0 l/m 28,3 km/h (5 Bft) S-SW45 210 0 min 1,43 klux 10 W/m
07.12.2014 15:04 5,8 C 4,9 C 6,8 C 73 % 1017,1 hPa 0,0 l/m 28,3 km/h (5 Bft) SW45 215 0 min 1,19 klux 8 W/m
07.12.2014 15:09 5,8 C 4,6 C 6,8 C 73 % 1017,1 hPa 0,0 l/m 22,5 km/h (4 Bft) S-SW45 210 0 min 970 lux 7 W/m
07.12.2014 15:14 5,7 C 4,6 C 6,8 C 74 % 1017,1 hPa 0,0 l/m 32,1 km/h (5 Bft) S-SW22.5 205 0 min 724 lux 5 W/m
07.12.2014 15:19 5,6 C 4,4 C 6,8 C 74 % 1017,1 hPa 0,0 l/m 27,1 km/h (5 Bft) S22.5 190 0 min 616 lux 4 W/m
07.12.2014 15:25 5,6 C 4,4 C 6,8 C 74 % 1017,1 hPa 0,0 l/m 26,6 km/h (4 Bft) S-SW22.5 205 0 min 641 lux 4 W/m
07.12.2014 15:30 5,7 C 4,4 C 6,8 C 73 % 1017,1 hPa 0,0 l/m 29,8 km/h (5 Bft) S-SW45 200 0 min 731 lux 5 W/m
07.12.2014 15:34 5,7 C 4,4 C 6,8 C 73 % 1017,1 hPa 0,0 l/m 24,5 km/h (4 Bft) S-SW45 205 0 min 769 lux 5 W/m
07.12.2014 15:39 5,7 C 4,4 C 6,8 C 73 % 1017,1 hPa 0,0 l/m 21,7 km/h (4 Bft) S-SW45 195 0 min 626 lux 4 W/m
07.12.2014 15:44 5,7 C 4,5 C 6,8 C 74 % 1016,1 hPa 0,0 l/m 28,8 km/h (5 Bft) S22.5 190 0 min 534 lux 4 W/m
07.12.2014 15:49 5,7 C 4,5 C 6,8 C 74 % 1016,1 hPa 0,0 l/m 27,0 km/h (5 Bft) S-SW22.5 205 0 min 534 lux 4 W/m
07.12.2014 15:54 5,8 C 4,5 C 6,8 C 74 % 1016,1 hPa 0,0 l/m 27,1 km/h (5 Bft) S-SW22.5 200 0 min 493 lux 3 W/m
07.12.2014 16:00 5,8 C 4,5 C 6,8 C 74 % 1016,1 hPa 0,0 l/m 24,3 km/h (4 Bft) S22.5 190 0 min 390 lux 3 W/m
07.12.2014 16:04 5,8 C 4,5 C 6,8 C 74 % 1016,1 hPa 0,0 l/m 22,8 km/h (4 Bft) S-SW22.5 200 0 min 364 lux 2 W/m
07.12.2014 16:09 5,8 C 4,4 C 6,8 C 74 % 1016,1 hPa 0,0 l/m 24,4 km/h (4 Bft) S-SW45 200 0 min 229 lux 2 W/m
07.12.2014 16:14 5,8 C 4,5 C 6,8 C 74 % 1016,1 hPa 0,0 l/m 23,7 km/h (4 Bft) S-SW45 205 0 min 156 lux 1 W/m
07.12.2014 16:19 5,8 C 4,6 C 6,8 C 75 % 1016,1 hPa 0,0 l/m 26,0 km/h (4 Bft) S-SW45 200 0 min 88 lux 0 W/m
07.12.2014 16:25 5,8 C 4,6 C 6,8 C 75 % 1016,1 hPa 0,0 l/m 28,3 km/h (5 Bft) S45 190 0 min 81 lux 0 W/m
07.12.2014 16:30 5,7 C 4,5 C 6,8 C 75 % 1016,1 hPa 0,0 l/m 23,6 km/h (4 Bft) S-SW45 195 0 min 68 lux 0 W/m
07.12.2014 16:34 5,6 C 4,4 C 6,8 C 76 % 1016,1 hPa 0,0 l/m 30,8 km/h (5 Bft) S-SW45 195 0 min 44 lux 0 W/m
07.12.2014 16:39 5,5 C 4,3 C 6,8 C 77 % 1016,1 hPa 0,0 l/m 24,9 km/h (4 Bft) S-SW45 210 0 min 25 lux 0 W/m
07.12.2014 16:44 5,5 C 4,3 C 6,8 C 78 % 1016,1 hPa 0,0 l/m 26,5 km/h (4 Bft) S-SW22.5 205 0 min 20 lux 0 W/m
07.12.2014 16:49 5,5 C 4,3 C 6,8 C 78 % 1016,1 hPa 0,0 l/m 28,9 km/h (5 Bft) S-SW45 205 0 min 9 lux 0 W/m
07.12.2014 16:54 5,5 C 4,4 C 6,8 C 78 % 1015,1 hPa 0,0 l/m 31,6 km/h (5 Bft) S-SW45 195 0 min 4 lux 0 W/m
07.12.2014 17:00 5,3 C 4,4 C 6,8 C 80 % 1015,1 hPa 0,0 l/m 33,1 km/h (5 Bft) SW45 215 0 min 4 lux 0 W/m
07.12.2014 17:04 5,2 C 4,3 C 6,8 C 80 % 1015,1 hPa 0,0 l/m 31,4 km/h (5 Bft) S-SW45 205 0 min 0 lux 0 W/m
07.12.2014 17:09 4,9 C 4,2 C 6,8 C 82 % 1015,1 hPa 0,0 l/m 26,4 km/h (4 Bft) S-SW45 205 0 min 0 lux 0 W/m
07.12.2014 17:14 4,9 C 4,2 C 6,8 C 82 % 1015,1 hPa 0,0 l/m 22,5 km/h (4 Bft) S-SW22.5 195 0 min 0 lux 0 W/m
07.12.2014 17:19 4,9 C 4,2 C 6,8 C 82 % 1015,1 hPa 0,0 l/m 19,3 km/h (3 Bft) S-SW45 200 0 min 0 lux 0 W/m
07.12.2014 17:25 4,9 C 4,3 C 6,8 C 82 % 1015,1 hPa 0,0 l/m 26,0 km/h (4 Bft) S-SW22.5 210 0 min 0 lux 0 W/m
07.12.2014 17:30 5,1 C 4,3 C 6,8 C 83 % 1015,1 hPa 0,0 l/m 27,1 km/h (5 Bft) SW45 215 0 min 0 lux 0 W/m
07.12.2014 17:34 4,9 C 4,2 C 6,8 C 83 % 1015,1 hPa 0,0 l/m 21,7 km/h (4 Bft) S-SW22.5 210 0 min 0 lux 0 W/m
07.12.2014 17:39 4,9 C 4,3 C 6,8 C 83 % 1015,1 hPa 0,0 l/m 25,0 km/h (4 Bft) S-SW22.5 205 0 min 0 lux 0 W/m
07.12.2014 17:44 4,9 C 4,3 C 6,8 C 83 % 1015,1 hPa 0,0 l/m 24,1 km/h (4 Bft) S-SW45 200 0 min 0 lux 0 W/m
07.12.2014 17:49 4,9 C 4,3 C 6,8 C 83 % 1015,1 hPa 0,0 l/m 20,0 km/h (4 Bft) S22.5 190 0 min 0 lux 0 W/m
07.12.2014 17:54 4,9 C 4,3 C 6,8 C 83 % 1015,1 hPa 0,4 l/m 22,5 km/h (4 Bft) S22.5 190 0 min 0 lux 0 W/m
07.12.2014 18:00 5,1 C 4,3 C 6,8 C 83 % 1015,1 hPa 0,0 l/m 23,9 km/h (4 Bft) S45 190 0 min 0 lux 0 W/m
07.12.2014 18:04 4,9 C 4,4 C 6,8 C 83 % 1015,1 hPa 0,0 l/m 22,5 km/h (4 Bft) S-SW22.5 195 0 min 0 lux 0 W/m
07.12.2014 18:09 4,9 C 4,4 C 6,8 C 83 % 1015,1 hPa 0,0 l/m 21,0 km/h (4 Bft) S22.5 190 0 min 0 lux 0 W/m
07.12.2014 18:14 5,1 C 4,4 C 6,8 C 84 % 1015,1 hPa 0,0 l/m 21,9 km/h (4 Bft) S45 185 0 min 0 lux 0 W/m
07.12.2014 18:19 5,1 C 4,4 C 6,8 C 84 % 1015,1 hPa 0,0 l/m 21,8 km/h (4 Bft) S22.5 190 0 min 0 lux 0 W/m
07.12.2014 18:25 5,2 C 4,5 C 6,8 C 84 % 1015,1 hPa 0,0 l/m 23,6 km/h (4 Bft) S-SW22.5 195 0 min 0 lux 0 W/m
07.12.2014 18:30 5,2 C 4,5 C 6,8 C 84 % 1015,1 hPa 0,0 l/m 24,5 km/h (4 Bft) S-SW22.5 205 0 min 0 lux 0 W/m
07.12.2014 18:34 5,2 C 4,6 C 6,8 C 85 % 1015,1 hPa 0,0 l/m 26,1 km/h (4 Bft) S-SW22.5 210 0 min 0 lux 0 W/m
07.12.2014 18:39 5,2 C 4,6 C 6,8 C 86 % 1015,1 hPa 0,0 l/m 22,6 km/h (4 Bft) S-SW45 205 0 min 0 lux 0 W/m
07.12.2014 18:44 5,2 C 4,6 C 6,8 C 86 % 1015,1 hPa 0,4 l/m 20,3 km/h (4 Bft) SW45 215 0 min 0 lux 0 W/m
07.12.2014 18:49 5,1 C 4,6 C 6,8 C 87 % 1015,1 hPa 0,0 l/m 30,5 km/h (5 Bft) SW45 225 0 min 0 lux 0 W/m
07.12.2014 18:54 4,9 C 4,7 C 6,8 C 88 % 1015,1 hPa 0,4 l/m 25,6 km/h (4 Bft) SW22.5 220 0 min 0 lux 0 W/m
07.12.2014 19:00 4,9 C 4,7 C 6,8 C 88 % 1015,1 hPa 0,0 l/m 25,2 km/h (4 Bft) SW45 220 0 min 0 lux 0 W/m
07.12.2014 19:04 4,9 C 4,7 C 6,8 C 88 % 1015,1 hPa 0,0 l/m 26,8 km/h (4 Bft) SW45 225 0 min 0 lux 0 W/m
07.12.2014 19:09 5,1 C 4,7 C 6,8 C 88 % 1015,1 hPa 0,0 l/m 26,9 km/h (4 Bft) SW45 215 0 min 0 lux 0 W/m
07.12.2014 19:14 5,1 C 4,8 C 6,8 C 88 % 1015,1 hPa 0,0 l/m 28,9 km/h (5 Bft) SW45 225 0 min 0 lux 0 W/m
07.12.2014 19:19 5,1 C 4,8 C 6,8 C 89 % 1015,1 hPa 0,0 l/m 26,6 km/h (4 Bft) SW45 230 0 min 0 lux 0 W/m
07.12.2014 19:25 5,2 C 4,8 C 6,8 C 89 % 1015,1 hPa 0,0 l/m 29,2 km/h (5 Bft) SW45 235 0 min 0 lux 0 W/m
07.12.2014 19:30 5,2 C 4,9 C 6,8 C 89 % 1015,1 hPa 0,0 l/m 29,2 km/h (5 Bft) SW45 235 0 min 0 lux 0 W/m
07.12.2014 19:34 5,2 C 4,9 C 6,8 C 89 % 1015,1 hPa 0,0 l/m 34,9 km/h (5 Bft) W-SW45 240 0 min 0 lux 0 W/m
07.12.2014 19:39 5,2 C 5,0 C 6,8 C 89 % 1015,1 hPa 0,0 l/m 30,5 km/h (5 Bft) W-SW22.5 245 0 min 0 lux 0 W/m
07.12.2014 19:44 5,2 C 5,0 C 6,8 C 89 % 1015,1 hPa 0,0 l/m 31,9 km/h (5 Bft) W-SW45 245 0 min 0 lux 0 W/m
07.12.2014 19:49 5,2 C 5,0 C 6,8 C 89 % 1015,1 hPa 0,0 l/m 31,9 km/h (5 Bft) W-SW45 245 0 min 0 lux 0 W/m
07.12.2014 19:54 5,3 C 5,0 C 6,8 C 89 % 1015,1 hPa 0,0 l/m 41,7 km/h (6 Bft) W-SW22.5 245 0 min 0 lux 0 W/m
07.12.2014 20:00 5,3 C 5,1 C 6,8 C 89 % 1015,1 hPa 0,0 l/m 35,2 km/h (5 Bft) W-SW45 250 0 min 0 lux 0 W/m
07.12.2014 20:04 5,4 C 5,1 C 6,8 C 89 % 1015,1 hPa 0,0 l/m 35,2 km/h (5 Bft) W-SW45 250 0 min 0 lux 0 W/m
07.12.2014 20:09 5,4 C 5,1 C 6,8 C 89 % 1015,1 hPa 0,0 l/m 30,7 km/h (5 Bft) W-SW45 250 0 min 0 lux 0 W/m
07.12.2014 20:14 5,4 C 5,1 C 6,8 C 89 % 1015,1 hPa 0,0 l/m 26,8 km/h (4 Bft) W-SW45 240 0 min 0 lux 0 W/m
07.12.2014 20:19 5,4 C 5,2 C 6,8 C 89 % 1016,1 hPa 0,0 l/m 38,3 km/h (6 Bft) SW67.5 235 0 min 0 lux 0 W/m
07.12.2014 20:25 5,4 C 5,2 C 6,9 C 89 % 1016,1 hPa 0,0 l/m 28,0 km/h (5 Bft) W-SW45 240 0 min 0 lux 0 W/m
07.12.2014 20:30 5,4 C 5,0 C 6,8 C 89 % 1016,1 hPa 0,0 l/m 28,0 km/h (5 Bft) W-SW45 240 0 min 0 lux 0 W/m
07.12.2014 20:34 5,4 C 4,7 C 6,8 C 89 % 1016,1 hPa 0,0 l/m 25,4 km/h (4 Bft) W-SW45 240 0 min 0 lux 0 W/m
07.12.2014 20:39 5,3 C 4,6 C 6,9 C 89 % 1016,1 hPa 0,0 l/m 26,9 km/h (4 Bft) W-SW22.5 240 0 min 0 lux 0 W/m
07.12.2014 20:44 5,4 C 4,9 C 6,9 C 89 % 1016,1 hPa 0,0 l/m 29,1 km/h (5 Bft) W-SW45 240 0 min 0 lux 0 W/m
07.12.2014 20:49 5,4 C 5,0 C 6,9 C 89 % 1016,1 hPa 0,0 l/m 27,3 km/h (5 Bft) SW45 230 0 min 0 lux 0 W/m
07.12.2014 20:54 5,4 C 5,1 C 6,9 C 89 % 1016,1 hPa 0,0 l/m 19,8 km/h (3 Bft) SW45 235 0 min 0 lux 0 W/m
07.12.2014 21:00 5,4 C 5,1 C 6,9 C 89 % 1016,1 hPa 0,0 l/m 23,5 km/h (4 Bft) SW45 235 0 min 0 lux 0 W/m
07.12.2014 21:04 5,4 C 5,1 C 6,9 C 89 % 1016,1 hPa 0,0 l/m 27,1 km/h (5 Bft) SW22.5 235 0 min 0 lux 0 W/m
07.12.2014 21:09 5,4 C 5,2 C 6,9 C 89 % 1016,1 hPa 0,0 l/m 22,3 km/h (4 Bft) SW45 235 0 min 0 lux 0 W/m
07.12.2014 21:14 5,5 C 5,2 C 6,9 C 89 % 1016,1 hPa 0,0 l/m 23,7 km/h (4 Bft) W-SW45 240 0 min 0 lux 0 W/m
07.12.2014 21:19 5,4 C 5,1 C 6,9 C 89 % 1016,1 hPa 0,0 l/m 23,0 km/h (4 Bft) SW45 235 0 min 0 lux 0 W/m
07.12.2014 21:25 5,5 C 5,2 C 6,9 C 89 % 1016,1 hPa 0,0 l/m 31,7 km/h (5 Bft) SW45 235 0 min 0 lux 0 W/m
07.12.2014 21:30 5,5 C 5,2 C 6,9 C 89 % 1016,1 hPa 0,0 l/m 27,5 km/h (5 Bft) W-SW67.5 250 0 min 0 lux 0 W/m
07.12.2014 21:34 5,5 C 5,2 C 6,9 C 89 % 1016,1 hPa 0,0 l/m 27,0 km/h (5 Bft) W-SW22.5 240 0 min 0 lux 0 W/m
07.12.2014 21:39 5,5 C 5,2 C 6,9 C 89 % 1016,1 hPa 0,0 l/m 24,8 km/h (4 Bft) SW45 225 0 min 0 lux 0 W/m
07.12.2014 21:44 5,5 C 5,1 C 6,9 C 89 % 1016,1 hPa 0,0 l/m 29,6 km/h (5 Bft) W-SW45 245 0 min 0 lux 0 W/m
07.12.2014 21:49 5,5 C 5,1 C 6,9 C 89 % 1016,1 hPa 0,0 l/m 24,3 km/h (4 Bft) W-SW22.5 240 0 min 0 lux 0 W/m
07.12.2014 21:54 5,5 C 5,2 C 6,9 C 89 % 1016,1 hPa 0,0 l/m 24,3 km/h (4 Bft) W-SW22.5 240 0 min 0 lux 0 W/m
07.12.2014 22:00 5,5 C 5,2 C 6,9 C 89 % 1016,1 hPa 0,0 l/m 27,1 km/h (5 Bft) W-SW22.5 240 0 min 0 lux 0 W/m
07.12.2014 22:04 5,5 C 5,2 C 6,9 C 89 % 1016,1 hPa 0,0 l/m 27,1 km/h (5 Bft) W-SW22.5 240 0 min 0 lux 0 W/m
07.12.2014 22:09 5,5 C 5,2 C 6,9 C 89 % 1016,1 hPa 0,0 l/m 29,2 km/h (5 Bft) W-SW45 255 0 min 0 lux 0 W/m
07.12.2014 22:14 5,5 C 5,2 C 6,9 C 89 % 1016,1 hPa 0,4 l/m 29,9 km/h (5 Bft) W22.5 260 0 min 0 lux 0 W/m
07.12.2014 22:19 5,4 C 5,1 C 6,9 C 89 % 1016,1 hPa 0,4 l/m 29,9 km/h (5 Bft) W22.5 260 0 min 0 lux 0 W/m
07.12.2014 22:25 5,4 C 5,1 C 6,9 C 89 % 1016,1 hPa 0,0 l/m 27,0 km/h (5 Bft) W-SW45 245 0 min 0 lux 0 W/m
07.12.2014 22:30 5,4 C 5,0 C 6,9 C 89 % 1016,1 hPa 0,0 l/m 22,2 km/h (4 Bft) SW22.5 235 0 min 0 lux 0 W/m
07.12.2014 22:34 5,4 C 5,0 C 6,9 C 89 % 1017,1 hPa 0,0 l/m 23,9 km/h (4 Bft) W22.5 260 0 min 0 lux 0 W/m
07.12.2014 22:39 5,4 C 5,0 C 6,9 C 90 % 1017,1 hPa 0,0 l/m 21,1 km/h (4 Bft) W22.5 270 0 min 0 lux 0 W/m
07.12.2014 22:44 5,4 C 5,1 C 6,9 C 90 % 1016,1 hPa 0,0 l/m 12,9 km/h (3 Bft) W-SW22.5 240 0 min 0 lux 0 W/m
07.12.2014 22:49 5,4 C 5,1 C 6,9 C 90 % 1016,1 hPa 0,0 l/m 20,4 km/h (4 Bft) W-SW22.5 250 0 min 0 lux 0 W/m
07.12.2014 22:54 5,4 C 5,1 C 6,9 C 90 % 1017,1 hPa 0,0 l/m 26,1 km/h (4 Bft) W22.5 260 0 min 0 lux 0 W/m
07.12.2014 23:00 5,4 C 5,1 C 6,9 C 90 % 1017,1 hPa 0,0 l/m 21,8 km/h (4 Bft) W-SW22.5 255 0 min 0 lux 0 W/m
07.12.2014 23:04 5,4 C 5,1 C 6,9 C 89 % 1017,1 hPa 0,0 l/m 18,6 km/h (3 Bft) W22.5 265 0 min 0 lux 0 W/m
07.12.2014 23:09 5,4 C 5,1 C 6,9 C 89 % 1017,1 hPa 0,0 l/m 22,1 km/h (4 Bft) W45 265 0 min 0 lux 0 W/m
07.12.2014 23:14 5,5 C 5,1 C 6,9 C 89 % 1017,1 hPa 0,0 l/m 17,3 km/h (3 Bft) W22.5 260 0 min 0 lux 0 W/m
07.12.2014 23:19 5,4 C 4,6 C 6,9 C 89 % 1017,1 hPa 0,0 l/m 25,3 km/h (4 Bft) W22.5 280 0 min 0 lux 0 W/m
07.12.2014 23:25 5,3 C 4,4 C 6,9 C 89 % 1017,1 hPa 0,0 l/m 20,9 km/h (4 Bft) W22.5 275 0 min 0 lux 0 W/m
07.12.2014 23:30 5,2 C 4,1 C 6,9 C 89 % 1017,1 hPa 0,0 l/m 19,3 km/h (3 Bft) W22.5 275 0 min 0 lux 0 W/m
07.12.2014 23:34 5,1 C 3,9 C 7,0 C 89 % 1017,1 hPa 0,0 l/m 21,3 km/h (4 Bft) W22.5 275 0 min 0 lux 0 W/m
07.12.2014 23:39 5,1 C 3,9 C 7,0 C 89 % 1017,1 hPa 0,0 l/m 21,7 km/h (4 Bft) W22.5 270 0 min 0 lux 0 W/m
07.12.2014 23:44 5,2 C 4,1 C 6,9 C 89 % 1017,1 hPa 0,0 l/m 17,0 km/h (3 Bft) W22.5 260 0 min 0 lux 0 W/m
07.12.2014 23:49 5,2 C 4,0 C 6,9 C 89 % 1017,1 hPa 0,0 l/m 16,1 km/h (3 Bft) W22.5 260 0 min 0 lux 0 W/m
07.12.2014 23:55 4,9 C 3,3 C 6,9 C 89 % 1017,1 hPa 0,0 l/m 16,8 km/h (3 Bft) W-SW22.5 255 0 min 0 lux 0 W/m
_ Min-Zeit 07:39 06:44 09:04 14:14 16:54 - 00:39 - - - - -
Minimum _ 3,2 C 1,7 C 6,6 C 68 % 1015,1 hPa - 0,0 km/h (0 Bft) - - - - -
_ Max-Zeit 12:04 11:59 01:15 07:34 00:34 17:54 19:54 - - 09:30 11:49 11:49
Maximum _ 6,7 C 15,1 C 7,0 C 92 % 1024,1 hPa 0,4 l/m 41,7 km/h
W-SW (6 Bft)
- - 6 min 35,3 klux 241 W/m
Durchschnitt _ 5,0 C 5,0 C 6,8 C 85 % 1019,4 hPa #1,8 l/m 19,6 km/h (3 Bft) SW - #2:06 h 2,89 klux 61 W/m